Printer-friendly version
Follow the MPC on Twitter Follow the MPC on Facebook The MPC blog
Minor Planet Center

MPEC 2005-U56 : 2005 UE3

The following Minor Planet Electronic Circular may be linked-to from your own Web pages, but must not otherwise be redistributed electronically.

A form allowing access to any MPEC is at the bottom of this page.


Read MPEC 2005-U55 Read MPEC 2005-U57


M.P.E.C. 2005-U56                                Issued 2005 Oct. 26, 17:49 UT

     The Minor Planet Electronic Circulars contain information on unusual
         minor planets and routine data on comets.  They are published
   on behalf of Commission 20 of the International Astronomical Union by the
          Minor Planet Center, Smithsonian Astrophysical Observatory,
                          Cambridge, MA 02138, U.S.A.

                  Supported in part by the Brinson Foundation
                  Supported in part by the TABASGO Foundation
             Prepared using the Tamkin Foundation Computer Network

                              MPC@CFA.HARVARD.EDU
          URL http://cfa-www.harvard.edu/iau/mpc.html  ISSN 1523-6714

                                   2005 UE3

Observations:
     K05U03E* C2005 10 25.15292 21 59 42.46 -10 11 07.8          19.9 V EU056G96
     K05U03E  C2005 10 25.15826 21 59 43.26 -10 10 57.1          20.9 V EU056G96
     K05U03E  C2005 10 25.16361 21 59 44.08 -10 10 46.0          20.8 V EU056G96
     K05U03E  C2005 10 25.16898 21 59 44.95 -10 10 35.0          20.8 V EU056G96
     K05U03E  C2005 10 25.20415 21 59 50.35 -10 09 22.4          21.0 V EU056G96
     K05U03E  C2005 10 25.21123 21 59 51.43 -10 09 08.3          20.4 V EU056G96
     K05U03E  C2005 10 25.21831 21 59 52.54 -10 08 53.4          20.4 V EU056G96
     K05U03E  C2005 10 25.22539 21 59 53.70 -10 08 39.0          21.2 V EU056G96
     K05U03E  C2005 10 25.80953 22 01 27.65 -09 48 47.0                 EU056J95
     K05U03E  C2005 10 25.81626 22 01 28.88 -09 48 31.5                 EU056J95
     K05U03E  C2005 10 25.82212 22 01 29.85 -09 48 20.3          20.7 R EU056J95
     K05U03E  C2005 10 26.06968 22 02 09.42 -09 39 52.6          20.9 R EU056734
     K05U03E  C2005 10 26.07556 22 02 10.35 -09 39 40.8          20.6 R EU056734

Observer details:
734 Farpoint Observatory.  Observer G. Hug.  0.7-m reflector + CCD.
G96 Mt. Lemmon Survey.  Observer E. C. Beshore.  Measurers E. C. Beshore,
    E. J. Christensen, G. J. Garradd, A. D. Grauer, R. E. Hill, R. A. Kowalski,
    S. M. Larson, R. H. McNaught.  1.5-m reflector + CCD.
J95 Great Shefford.  Observer P. Birtwhistle.  0.40-m f/6.0 Schmidt-Cassegrain
    + CCD.

Orbital elements:
2005 UE3
Epoch 2005 Oct. 17.0 TT = JDT 2453660.5                 MPC
M   3.97746              (2000.0)            P               Q
n   0.19976843     Peri.  341.61476     +0.97559804     +0.21890691
a   2.8981319      Node     5.82014     -0.17452942     +0.82008695
e   0.5552461      Incl.    9.63773     -0.13322140     +0.52871274
P   4.93           H   19.9           G   0.15
From 13 observations 2005 Oct. 25-26.

Ephemeris:
2005 UE3                 a,e,i = 2.90, 0.56, 10                  q = 1.2890
Date    TT    R. A. (2000) Decl.     Delta      r     Elong.  Phase     V
2005 10 27    22 04.63   -09 08.2    0.549    1.332   116.3    42.0    20.9
2005 11 06    22 31.18   -03 47.8    0.614    1.364   114.3    41.5    21.1
2005 11 16    22 57.33   +00 57.6    0.691    1.404   112.1    40.7    21.4
2005 11 26    23 22.93   +05 08.1    0.782    1.450   109.6    39.9    21.8
2005 12 06    23 47.97   +08 46.8    0.885    1.501   106.7    39.0    22.1

Kyle E. Smalley              (C) Copyright 2005 MPC           M.P.E.C. 2005-U56

Read MPEC 2005-U55 Read MPEC 2005-U57


MPEC number:

Enter an MPEC number in one of the following forms:

  • 1997-B01 (the full form)
  • J97B01 (the packed version of the full form)
  • B01 (the abbreviated form)

Valid HTML 4.01!